Home   Weather   Oakland   Past weeks

Flag for USA Past Weather in Oakland, California, USA — Yesterday and Last 2 Weeks

Now
62 °F

Low clouds.


Feels Like: 62 °F
Forecast: 59 / 69 °F
Wind: 5 mph from West

Location: Metro Oakland International Airport

Current Time: Aug 20, 2017 at 6:55:30 am

Latest Report: Aug 20, 2017 at 5:53 am


Visibility: 10 mi

Pressure: 29.86 "Hg

Humidity: 86%

Dew Point: 58 °F

Location of OaklandLocation

Past Weather in Oakland — Graph

°F

Oakland Temperature Yesterday

Maximum temperature yesterday: 69 °F (at 1:53 pm)
Minimum temperature yesterday: 60 °F (at 12:53 am)
Average temperature yesterday: 63 °F

High & Low Weather Summary for the Past Weeks

 TemperatureHumidityPressure
High71 °F (Aug 5, 1:53 pm)100% (Aug 5, 4:16 am)30.04 "Hg (Aug 5, 4:16 am)
Low57 °F (Aug 13, 3:53 am)61% (Aug 16, 1:53 pm)29.84 "Hg (Aug 15, 4:53 am)
Average62 °F86%29.94 "Hg
* Reported Aug 5 4:16 am — Aug 20 4:53 am, Oakland. Weather by CustomWeather, © 2017

Note: Actual official high and low records may vary slightly from our data, if they occured in-between our weather recording intervals... More about our weather records

Advertising

Oakland Weather History for the Previous 24 Hours

Scroll right to see more
 ConditionsComfort  
Time TempWeatherWind HumidityBarometerVisibility
4:53 am
Sun, Aug 20
62 °FLow clouds.6 mph86%29.86 "Hg10 mi
4:14 am62 °FMostly cloudy.3 mph86%29.86 "Hg10 mi
3:53 am62 °FLow clouds.7 mph86%29.86 "Hg10 mi
2:53 am62 °FLow clouds.10 mph90%29.86 "Hg10 mi
2:00 am62 °FLow clouds.6 mph86%29.88 "Hg10 mi
12:53 am61 °FOvercast.5 mph93%29.88 "Hg10 mi
12:25 am60 °FPartly cloudy.5 mph96%29.88 "Hg10 mi
11:53 pm
Sat, Aug 19
60 °FPassing clouds.3 mph93%29.87 "Hg10 mi
10:53 pm61 °FPassing clouds.7 mph93%29.87 "Hg10 mi
9:53 pm62 °FPassing clouds.7 mph90%29.88 "Hg10 mi
8:53 pm62 °FPassing clouds.8 mph90%29.88 "Hg10 mi
7:53 pm63 °FPassing clouds.14 mph87%29.86 "Hg10 mi
6:53 pm64 °FPassing clouds.15 mph81%29.86 "Hg10 mi
5:53 pm66 °FPassing clouds.10 mph78%29.87 "Hg10 mi
4:53 pm68 °FPassing clouds.15 mph70%29.87 "Hg10 mi
3:53 pm69 °FPassing clouds.12 mph73%29.88 "Hg10 mi
2:53 pm68 °FPassing clouds.16 mph76%29.89 "Hg10 mi
1:53 pm69 °FPassing clouds.15 mph70%29.90 "Hg10 mi
12:53 pm68 °FPassing clouds.9 mph70%29.92 "Hg10 mi
12:17 pm66 °FScattered clouds.8 mph75%29.93 "Hg9 mi
11:53 am65 °FOvercast.8 mph81%29.93 "Hg9 mi
10:53 am62 °FOvercast.9 mph86%29.94 "Hg8 mi
10:41 am63 °FOvercast.6 mph87%29.95 "Hg7 mi
9:53 am61 °FLow clouds.7 mph90%29.94 "Hg8 mi
8:53 am61 °FLow clouds.8 mph93%29.93 "Hg7 mi
7:53 am61 °FLow clouds.No wind93%29.92 "Hg7 mi
6:53 am61 °FLow clouds.No wind93%29.91 "Hg8 mi
Weather by CustomWeather, © 2017

See weather overviewHow to use our weather pages